START_TIME,STEP,MOV.,P1,t_acc.,E44,t_acc.,A3,t_acc.,P10,t_acc.
1979-07-23 06:00:22.810 ,0,0,3.,1.2,184.,1.2,1.,1.2,1.,1.2
1979-07-23 06:00:24.010 ,0,0,2.,1.2,29.,1.2,0.,1.2,0.,1.2
1979-07-23 06:00:25.210 ,0,0,1.,1.2,36.,1.2,0.,1.2,0.,1.2
1979-07-23 06:00:26.410 ,0,0,2.,1.2,34.,1.2,0.,1.2,0.,1.2
1979-07-23 06:00:27.610 ,0,0,1.,1.2,48.,1.2,0.,1.2,0.,1.2
1979-07-23 06:00:28.810 ,0,0,2.,1.2,204.,1.2,0.,1.2,0.,1.2
1979-07-23 06:00:30.010 ,0,0,3.,1.2,49.,1.2,0.,1.2,0.,1.2
1979-07-23 06:00:31.210 ,0,0,5.,1.2,58.,1.2,0.,1.2,1.,1.2
1979-07-23 06:00:32.410 ,0,0,1.,1.2,64.,1.2,0.,1.2,0.,1.2
1979-07-23 06:00:33.610 ,0,0,3.,1.2,56.,1.2,0.,1.2,0.,1.2
1979-07-23 06:00:34.810 ,0,0,4.,1.2,256.,1.2,0.,1.2,0.,1.2
1979-07-23 06:00:36.010 ,0,0,25.,1.2,88.,1.2,1.,1.2,0.,1.2
1979-07-23 06:00:37.210 ,0,0,21.,1.2,68.,1.2,0.,1.2,0.,1.2
1979-07-23 06:00:38.410 ,0,0,32.,1.2,70.,1.2,0.,1.2,0.,1.2
1979-07-23 06:00:39.610 ,0,0,28.,1.2,72.,1.2,0.,1.2,0.,1.2
1979-07-23 06:00:40.810 ,0,0,34.,1.2,41.,1.2,0.,1.2,0.,1.2
1979-07-23 06:00:42.010 ,0,0,37.,1.2,50.,1.2,0.,1.2,0.,1.2
1979-07-23 06:00:43.210 ,0,0,24.,1.2,58.,1.2,0.,1.2,1.,1.2
1979-07-23 06:00:44.410 ,0,0,21.,1.2,46.,1.2,0.,1.2,0.,1.2
1979-07-23 06:00:45.610 ,0,0,21.,1.2,43.,1.2,0.,1.2,0.,1.2
1979-07-23 06:00:46.810 ,4,0,17.,1.2,188.,1.2,0.,1.2,0.,1.2
1979-07-23 06:00:48.010 ,4,0,2.,1.2,31.,1.2,0.,1.2,0.,1.2
1979-07-23 06:00:49.210 ,4,0,3.,1.2,41.,1.2,0.,1.2,0.,1.2
1979-07-23 06:00:50.410 ,4,0,0.,1.2,47.,1.2,0.,1.2,0.,1.2
1979-07-23 06:00:51.610 ,4,0,2.,1.2,52.,1.2,0.,1.2,0.,1.2
1979-07-23 06:00:52.810 ,4,0,1.,1.2,180.,1.2,1.,1.2,0.,1.2
1979-07-23 06:00:54.010 ,4,0,3.,1.2,34.,1.2,0.,1.2,0.,1.2
1979-07-23 06:00:55.210 ,4,0,3.,1.2,38.,1.2,0.,1.2,0.,1.2
1979-07-23 06:00:56.410 ,4,0,1.,1.2,38.,1.2,1.,1.2,0.,1.2
1979-07-23 06:00:57.610 ,4,0,1.,1.2,44.,1.2,0.,1.2,0.,1.2
1979-07-23 06:00:58.810 ,4,0,0.,1.2,172.,1.2,0.,1.2,0.,1.2
1979-07-23 06:01:00.010 ,4,0,1.,1.2,13.,1.2,0.,1.2,0.,1.2
1979-07-23 06:01:01.210 ,4,0,2.,1.2,13.,1.2,0.,1.2,0.,1.2
1979-07-23 06:01:02.410 ,4,0,2.,1.2,18.,1.2,0.,1.2,0.,1.2
1979-07-23 06:01:03.610 ,4,0,4.,1.2,15.,1.2,0.,1.2,0.,1.2
1979-07-23 06:01:04.810 ,4,0,2.,1.2,164.,1.2,0.,1.2,0.,1.2
1979-07-23 06:01:06.010 ,4,0,3.,1.2,57.,1.2,0.,1.2,0.,1.2
1979-07-23 06:01:07.210 ,4,0,0.,1.2,70.,1.2,0.,1.2,0.,1.2
1979-07-23 06:01:08.410 ,4,0,1.,1.2,82.,1.2,0.,1.2,0.,1.2
1979-07-23 06:01:09.610 ,4,0,2.,1.2,72.,1.2,0.,1.2,0.,1.2
1979-07-23 06:01:10.810 ,7,0,2.,1.2,196.,1.2,0.,1.2,0.,1.2
1979-07-23 06:01:12.010 ,7,0,1.,1.2,48.,1.2,0.,1.2,0.,1.2
1979-07-23 06:01:13.210 ,7,0,1.,1.2,74.,1.2,0.,1.2,0.,1.2
1979-07-23 06:01:14.410 ,7,0,2.,1.2,58.,1.2,0.,1.2,0.,1.2
1979-07-23 06:01:15.610 ,7,0,2.,1.2,42.,1.2,0.,1.2,0.,1.2
1979-07-23 06:01:16.810 ,7,0,2.,1.2,180.,1.2,0.,1.2,0.,1.2
1979-07-23 06:01:18.010 ,7,0,3.,1.2,38.,1.2,0.,1.2,0.,1.2
1979-07-23 06:01:19.210 ,7,0,8.,1.2,36.,1.2,1.,1.2,0.,1.2
1979-07-23 06:01:20.410 ,7,0,8.,1.2,41.,1.2,0.,1.2,0.,1.2
1979-07-23 06:01:21.610 ,7,0,4.,1.2,45.,1.2,0.,1.2,0.,1.2
1979-07-23 06:01:22.810 ,7,0,2.,1.2,264.,1.2,3.,1.2,0.,1.2
1979-07-23 06:01:24.010 ,7,0,0.,1.2,49.,1.2,2.,1.2,0.,1.2
1979-07-23 06:01:25.210 ,7,0,0.,1.2,52.,1.2,7.,1.2,0.,1.2
1979-07-23 06:01:26.410 ,7,0,0.,1.2,48.,1.2,5.,1.2,0.,1.2
1979-07-23 06:01:27.610 ,7,0,0.,1.2,35.,1.2,2.,1.2,0.,1.2
1979-07-23 06:01:28.810 ,7,0,0.,1.2,48.,1.2,4.,1.2,0.,1.2
1979-07-23 06:01:30.010 ,7,0,0.,1.2,38.,1.2,3.,1.2,0.,1.2
1979-07-23 06:01:31.210 ,7,0,0.,1.2,48.,1.2,5.,1.2,0.,1.2
1979-07-23 06:01:32.410 ,7,0,0.,1.2,44.,1.2,5.,1.2,0.,1.2
1979-07-23 06:01:33.610 ,7,0,0.,1.2,45.,1.2,6.,1.2,0.,1.2
1979-07-23 06:01:34.810 ,3,0,1.,1.2,188.,1.2,1.,1.2,0.,1.2
1979-07-23 06:01:36.010 ,3,0,0.,1.2,44.,1.2,1.,1.2,0.,1.2
1979-07-23 06:01:37.210 ,3,0,2.,1.2,39.,1.2,0.,1.2,0.,1.2
1979-07-23 06:01:38.410 ,3,0,2.,1.2,39.,1.2,1.,1.2,0.,1.2
1979-07-23 06:01:39.610 ,3,0,2.,1.2,36.,1.2,0.,1.2,0.,1.2
1979-07-23 06:01:40.810 ,3,0,3.,1.2,164.,1.2,0.,1.2,0.,1.2
1979-07-23 06:01:42.010 ,3,0,3.,1.2,44.,1.2,0.,1.2,0.,1.2
1979-07-23 06:01:43.210 ,3,0,0.,1.2,50.,1.2,0.,1.2,0.,1.2
1979-07-23 06:01:44.410 ,3,0,1.,1.2,37.,1.2,0.,1.2,0.,1.2
1979-07-23 06:01:45.610 ,3,0,1.,1.2,44.,1.2,0.,1.2,0.,1.2
1979-07-23 06:01:46.810 ,3,0,1.,1.2,160.,1.2,1.,1.2,0.,1.2
1979-07-23 06:01:48.010 ,3,0,1.,1.2,51.,1.2,0.,1.2,0.,1.2
1979-07-23 06:01:49.210 ,3,0,0.,1.2,58.,1.2,0.,1.2,0.,1.2
1979-07-23 06:01:50.410 ,3,0,2.,1.2,51.,1.2,0.,1.2,0.,1.2
1979-07-23 06:01:51.610 ,3,0,1.,1.2,70.,1.2,0.,1.2,0.,1.2
1979-07-23 06:01:52.810 ,3,0,2.,1.2,220.,1.2,0.,1.2,0.,1.2
1979-07-23 06:01:54.010 ,3,0,1.,1.2,14.,1.2,0.,1.2,0.,1.2
1979-07-23 06:01:55.210 ,3,0,0.,1.2,10.,1.2,0.,1.2,0.,1.2
1979-07-23 06:01:56.410 ,3,0,2.,1.2,10.,1.2,0.,1.2,0.,1.2
1979-07-23 06:01:57.610 ,3,0,0.,1.2,16.,1.2,0.,1.2,0.,1.2
1979-07-23 06:01:58.810 ,0,0,1.,1.2,192.,1.2,0.,1.2,0.,1.2
1979-07-23 06:02:00.010 ,0,0,1.,1.2,41.,1.2,0.,1.2,0.,1.2
1979-07-23 06:02:01.210 ,0,0,1.,1.2,27.,1.2,0.,1.2,0.,1.2
1979-07-23 06:02:02.410 ,0,0,1.,1.2,38.,1.2,0.,1.2,0.,1.2
1979-07-23 06:02:03.610 ,0,0,2.,1.2,43.,1.2,0.,1.2,0.,1.2
1979-07-23 06:02:04.810 ,0,0,2.,1.2,216.,1.2,0.,1.2,0.,1.2
1979-07-23 06:02:06.010 ,0,0,5.,1.2,29.,1.2,0.,1.2,0.,1.2
1979-07-23 06:02:07.210 ,0,0,1.,1.2,41.,1.2,0.,1.2,0.,1.2
1979-07-23 06:02:08.410 ,0,0,2.,1.2,35.,1.2,0.,1.2,0.,1.2
1979-07-23 06:02:09.610 ,0,0,1.,1.2,27.,1.2,0.,1.2,0.,1.2
1979-07-23 06:02:10.810 ,0,0,8.,1.2,200.,1.2,1.,1.2,0.,1.2
1979-07-23 06:02:12.010 ,0,0,33.,1.2,35.,1.2,0.,1.2,0.,1.2
1979-07-23 06:02:13.210 ,0,0,16.,1.2,36.,1.2,0.,1.2,0.,1.2
1979-07-23 06:02:14.410 ,0,0,19.,1.2,39.,1.2,0.,1.2,0.,1.2
1979-07-23 06:02:15.610 ,0,0,,0,,0,,0,,0
1979-07-23 06:02:16.810 ,0,0,17.,1.2,26.,1.2,0.,1.2,0.,1.2
1979-07-23 06:02:18.010 ,0,0,26.,1.2,30.,1.2,0.,1.2,0.,1.2
1979-07-23 06:02:19.210 ,0,0,27.,1.2,27.,1.2,0.,1.2,0.,1.2
1979-07-23 06:02:20.410 ,0,0,26.,1.2,36.,1.2,0.,1.2,0.,1.2
1979-07-23 06:02:21.610 ,0,0,27.,1.2,35.,1.2,0.,1.2,0.,1.2
1979-07-23 06:02:22.810 ,4,0,20.,1.2,160.,1.2,0.,1.2,0.,1.2
1979-07-23 06:02:24.010 ,4,0,3.,1.2,25.,1.2,0.,1.2,0.,1.2
1979-07-23 06:02:25.210 ,4,0,0.,1.2,26.,1.2,1.,1.2,0.,1.2
1979-07-23 06:02:26.410 ,4,0,1.,1.2,36.,1.2,0.,1.2,0.,1.2
1979-07-23 06:02:27.610 ,4,0,2.,1.2,33.,1.2,0.,1.2,0.,1.2
1979-07-23 06:02:28.810 ,4,0,1.,1.2,176.,1.2,0.,1.2,0.,1.2
1979-07-23 06:02:30.010 ,4,0,2.,1.2,40.,1.2,0.,1.2,0.,1.2
1979-07-23 06:02:31.210 ,4,0,2.,1.2,33.,1.2,0.,1.2,0.,1.2
1979-07-23 06:02:32.410 ,4,0,1.,1.2,39.,1.2,0.,1.2,0.,1.2
1979-07-23 06:02:33.610 ,4,0,2.,1.2,34.,1.2,0.,1.2,0.,1.2
1979-07-23 06:02:34.810 ,4,0,1.,1.2,184.,1.2,0.,1.2,0.,1.2
1979-07-23 06:02:36.010 ,4,0,3.,1.2,9.,1.2,0.,1.2,0.,1.2
1979-07-23 06:02:37.210 ,4,0,1.,1.2,15.,1.2,0.,1.2,0.,1.2
1979-07-23 06:02:38.410 ,4,0,2.,1.2,14.,1.2,0.,1.2,0.,1.2
1979-07-23 06:02:39.610 ,4,0,3.,1.2,13.,1.2,0.,1.2,0.,1.2
1979-07-23 06:02:40.810 ,4,0,2.,1.2,164.,1.2,0.,1.2,0.,1.2
1979-07-23 06:02:42.010 ,4,0,5.,1.2,57.,1.2,0.,1.2,0.,1.2
1979-07-23 06:02:43.210 ,4,0,6.,1.2,57.,1.2,1.,1.2,0.,1.2
1979-07-23 06:02:44.410 ,4,0,2.,1.2,51.,1.2,0.,1.2,0.,1.2
1979-07-23 06:02:45.610 ,4,0,1.,1.2,52.,1.2,0.,1.2,0.,1.2
1979-07-23 06:02:46.810 ,7,0,0.,1.2,176.,1.2,0.,1.2,0.,1.2
1979-07-23 06:02:48.010 ,7,0,1.,1.2,53.,1.2,0.,1.2,0.,1.2
1979-07-23 06:02:49.210 ,7,0,0.,1.2,45.,1.2,0.,1.2,0.,1.2
1979-07-23 06:02:50.410 ,7,0,4.,1.2,47.,1.2,0.,1.2,0.,1.2
1979-07-23 06:02:51.610 ,7,0,0.,1.2,41.,1.2,0.,1.2,0.,1.2
1979-07-23 06:02:52.810 ,7,0,2.,1.2,184.,1.2,0.,1.2,0.,1.2
1979-07-23 06:02:54.010 ,7,0,3.,1.2,38.,1.2,0.,1.2,0.,1.2
1979-07-23 06:02:55.210 ,7,0,2.,1.2,43.,1.2,0.,1.2,0.,1.2
1979-07-23 06:02:56.410 ,7,0,6.,1.2,35.,1.2,0.,1.2,0.,1.2
1979-07-23 06:02:57.610 ,7,0,3.,1.2,42.,1.2,0.,1.2,0.,1.2
1979-07-23 06:02:58.810 ,7,0,1.,1.2,216.,1.2,0.,1.2,0.,1.2
1979-07-23 06:03:00.010 ,7,0,0.,1.2,48.,1.2,6.,1.2,0.,1.2
1979-07-23 06:03:01.210 ,7,0,0.,1.2,50.,1.2,4.,1.2,0.,1.2
1979-07-23 06:03:02.410 ,7,0,0.,1.2,43.,1.2,7.,1.2,0.,1.2
1979-07-23 06:03:03.610 ,7,0,0.,1.2,52.,1.2,5.,1.2,0.,1.2
1979-07-23 06:03:04.810 ,7,0,0.,1.2,38.,1.2,4.,1.2,0.,1.2
1979-07-23 06:03:06.010 ,7,0,0.,1.2,48.,1.2,3.,1.2,0.,1.2
1979-07-23 06:03:07.210 ,7,0,0.,1.2,60.,1.2,3.,1.2,0.,1.2
1979-07-23 06:03:08.410 ,7,0,0.,1.2,58.,1.2,8.,1.2,0.,1.2
1979-07-23 06:03:09.610 ,7,0,0.,1.2,60.,1.2,8.,1.2,0.,1.2
1979-07-23 06:03:10.810 ,3,0,0.,1.2,220.,1.2,2.,1.2,0.,1.2
1979-07-23 06:03:12.010 ,3,0,1.,1.2,57.,1.2,0.,1.2,0.,1.2
1979-07-23 06:03:13.210 ,3,0,0.,1.2,50.,1.2,0.,1.2,0.,1.2
1979-07-23 06:03:14.410 ,3,0,4.,1.2,42.,1.2,0.,1.2,0.,1.2
1979-07-23 06:03:15.610 ,3,0,5.,1.2,50.,1.2,1.,1.2,0.,1.2
1979-07-23 06:03:16.810 ,3,0,2.,1.2,176.,1.2,0.,1.2,0.,1.2
1979-07-23 06:03:18.010 ,3,0,1.,1.2,47.,1.2,0.,1.2,0.,1.2
1979-07-23 06:03:19.210 ,3,0,1.,1.2,56.,1.2,1.,1.2,1.,1.2
1979-07-23 06:03:20.410 ,3,0,1.,1.2,51.,1.2,0.,1.2,0.,1.2
1979-07-23 06:03:21.610 ,3,0,2.,1.2,60.,1.2,0.,1.2,0.,1.2
1979-07-23 06:03:22.810 ,3,0,1.,1.2,164.,1.2,0.,1.2,0.,1.2
1979-07-23 06:03:24.010 ,3,0,0.,1.2,68.,1.2,0.,1.2,0.,1.2
1979-07-23 06:03:25.210 ,3,0,3.,1.2,47.,1.2,1.,1.2,0.,1.2
1979-07-23 06:03:26.410 ,3,0,1.,1.2,63.,1.2,1.,1.2,0.,1.2
1979-07-23 06:03:27.610 ,3,0,1.,1.2,55.,1.2,0.,1.2,0.,1.2
1979-07-23 06:03:28.810 ,3,0,1.,1.2,272.,1.2,0.,1.2,0.,1.2
1979-07-23 06:03:30.010 ,3,0,0.,1.2,16.,1.2,0.,1.2,0.,1.2
1979-07-23 06:03:31.210 ,3,0,1.,1.2,16.,1.2,0.,1.2,0.,1.2
1979-07-23 06:03:32.410 ,3,0,1.,1.2,9.,1.2,0.,1.2,0.,1.2
1979-07-23 06:03:33.610 ,3,0,2.,1.2,15.,1.2,0.,1.2,0.,1.2
1979-07-23 06:03:34.810 ,0,0,0.,1.2,156.,1.2,0.,1.2,0.,1.2
1979-07-23 06:03:36.010 ,0,0,1.,1.2,51.,1.2,0.,1.2,0.,1.2
1979-07-23 06:03:37.210 ,0,0,4.,1.2,58.,1.2,0.,1.2,1.,1.2
1979-07-23 06:03:38.410 ,0,0,2.,1.2,57.,1.2,0.,1.2,0.,1.2
1979-07-23 06:03:39.610 ,0,0,2.,1.2,37.,1.2,0.,1.2,0.,1.2
1979-07-23 06:03:40.810 ,0,0,2.,1.2,212.,1.2,0.,1.2,0.,1.2
1979-07-23 06:03:42.010 ,0,0,1.,1.2,54.,1.2,0.,1.2,0.,1.2
1979-07-23 06:03:43.210 ,0,0,2.,1.2,68.,1.2,0.,1.2,0.,1.2
1979-07-23 06:03:44.410 ,0,0,5.,1.2,46.,1.2,0.,1.2,0.,1.2
1979-07-23 06:03:45.610 ,0,0,2.,1.2,46.,1.2,0.,1.2,0.,1.2
1979-07-23 06:03:46.810 ,0,0,8.,1.2,228.,1.2,0.,1.2,0.,1.2
1979-07-23 06:03:48.010 ,0,0,33.,1.2,66.,1.2,0.,1.2,1.,1.2
1979-07-23 06:03:49.210 ,0,0,34.,1.2,70.,1.2,0.,1.2,0.,1.2
1979-07-23 06:03:50.410 ,0,0,33.,1.2,76.,1.2,0.,1.2,0.,1.2
1979-07-23 06:03:51.610 ,0,0,29.,1.2,59.,1.2,0.,1.2,0.,1.2
1979-07-23 06:03:52.810 ,0,0,13.,1.2,78.,1.2,0.,1.2,0.,1.2
1979-07-23 06:03:54.010 ,0,0,16.,1.2,70.,1.2,0.,1.2,0.,1.2
1979-07-23 06:03:55.210 ,0,0,11.,1.2,74.,1.2,0.,1.2,0.,1.2
1979-07-23 06:03:56.410 ,0,0,17.,1.2,76.,1.2,0.,1.2,0.,1.2
1979-07-23 06:03:57.610 ,0,0,12.,1.2,76.,1.2,0.,1.2,0.,1.2
1979-07-23 06:03:58.810 ,4,0,10.,1.2,204.,1.2,0.,1.2,0.,1.2
1979-07-23 06:04:00.010 ,4,0,1.,1.2,48.,1.2,0.,1.2,0.,1.2
1979-07-23 06:04:01.210 ,4,0,1.,1.2,57.,1.2,0.,1.2,0.,1.2
1979-07-23 06:04:02.410 ,4,0,2.,1.2,66.,1.2,0.,1.2,0.,1.2
1979-07-23 06:04:03.610 ,4,0,2.,1.2,64.,1.2,1.,1.2,0.,1.2
1979-07-23 06:04:04.810 ,4,0,1.,1.2,216.,1.2,0.,1.2,0.,1.2
1979-07-23 06:04:06.010 ,4,0,5.,1.2,35.,1.2,0.,1.2,0.,1.2
1979-07-23 06:04:07.210 ,4,0,2.,1.2,45.,1.2,0.,1.2,0.,1.2
1979-07-23 06:04:08.410 ,4,0,2.,1.2,66.,1.2,0.,1.2,0.,1.2
1979-07-23 06:04:09.610 ,4,0,2.,1.2,40.,1.2,0.,1.2,0.,1.2
1979-07-23 06:04:10.810 ,4,0,1.,1.2,196.,1.2,0.,1.2,0.,1.2
1979-07-23 06:04:12.010 ,4,0,1.,1.2,13.,1.2,0.,1.2,0.,1.2
1979-07-23 06:04:13.210 ,4,0,0.,1.2,12.,1.2,0.,1.2,0.,1.2
1979-07-23 06:04:14.410 ,4,0,1.,1.2,20.,1.2,0.,1.2,0.,1.2
1979-07-23 06:04:15.610 ,4,0,3.,1.2,12.,1.2,0.,1.2,0.,1.2
1979-07-23 06:04:16.810 ,4,0,1.,1.2,152.,1.2,0.,1.2,0.,1.2
1979-07-23 06:04:18.010 ,4,0,0.,1.2,56.,1.2,0.,1.2,0.,1.2
1979-07-23 06:04:19.210 ,4,0,1.,1.2,66.,1.2,0.,1.2,0.,1.2
1979-07-23 06:04:20.410 ,4,0,1.,1.2,47.,1.2,1.,1.2,0.,1.2
1979-07-23 06:04:21.610 ,4,0,2.,1.2,55.,1.2,1.,1.2,0.,1.2
1979-07-23 06:04:22.810 ,7,0,4.,1.2,188.,1.2,0.,1.2,0.,1.2
1979-07-23 06:04:24.010 ,7,0,0.,1.2,60.,1.2,0.,1.2,0.,1.2
1979-07-23 06:04:25.210 ,7,0,1.,1.2,53.,1.2,0.,1.2,0.,1.2
1979-07-23 06:04:26.410 ,7,0,1.,1.2,50.,1.2,0.,1.2,0.,1.2
1979-07-23 06:04:27.610 ,7,0,3.,1.2,58.,1.2,0.,1.2,0.,1.2
1979-07-23 06:04:28.810 ,7,0,2.,1.2,204.,1.2,0.,1.2,0.,1.2
1979-07-23 06:04:30.010 ,7,0,0.,1.2,38.,1.2,0.,1.2,0.,1.2
1979-07-23 06:04:31.210 ,7,0,1.,1.2,46.,1.2,0.,1.2,0.,1.2
1979-07-23 06:04:32.410 ,7,0,2.,1.2,47.,1.2,1.,1.2,0.,1.2
1979-07-23 06:04:33.610 ,7,0,3.,1.2,53.,1.2,1.,1.2,0.,1.2
1979-07-23 06:04:34.810 ,7,0,2.,1.2,252.,1.2,5.,1.2,0.,1.2
1979-07-23 06:04:36.010 ,7,0,0.,1.2,54.,1.2,2.,1.2,0.,1.2
1979-07-23 06:04:37.210 ,7,0,0.,1.2,48.,1.2,2.,1.2,0.,1.2
1979-07-23 06:04:38.410 ,7,0,0.,1.2,64.,1.2,5.,1.2,0.,1.2
1979-07-23 06:04:39.610 ,7,0,0.,1.2,56.,1.2,7.,1.2,0.,1.2
1979-07-23 06:04:40.810 ,7,0,0.,1.2,47.,1.2,4.,1.2,0.,1.2
1979-07-23 06:04:42.010 ,7,0,0.,1.2,43.,1.2,9.,1.2,0.,1.2
1979-07-23 06:04:43.210 ,7,0,0.,1.2,46.,1.2,7.,1.2,0.,1.2
1979-07-23 06:04:44.410 ,7,0,0.,1.2,58.,1.2,5.,1.2,0.,1.2
1979-07-23 06:04:45.610 ,7,0,0.,1.2,62.,1.2,7.,1.2,0.,1.2
1979-07-23 06:04:46.810 ,3,0,1.,1.2,224.,1.2,5.,1.2,0.,1.2
1979-07-23 06:04:48.010 ,3,0,3.,1.2,41.,1.2,1.,1.2,0.,1.2
1979-07-23 06:04:49.210 ,3,0,6.,1.2,40.,1.2,0.,1.2,0.,1.2
1979-07-23 06:04:50.410 ,3,0,5.,1.2,50.,1.2,0.,1.2,0.,1.2
1979-07-23 06:04:51.610 ,3,0,2.,1.2,38.,1.2,0.,1.2,0.,1.2
1979-07-23 06:04:52.810 ,3,0,3.,1.2,152.,1.2,0.,1.2,0.,1.2
1979-07-23 06:04:54.010 ,3,0,2.,1.2,24.,1.2,1.,1.2,0.,1.2
1979-07-23 06:04:55.210 ,3,0,4.,1.2,20.,1.2,0.,1.2,0.,1.2
1979-07-23 06:04:56.410 ,3,0,0.,1.2,31.,1.2,0.,1.2,0.,1.2
1979-07-23 06:04:57.610 ,3,0,4.,1.2,30.,1.2,0.,1.2,0.,1.2
1979-07-23 06:04:58.810 ,3,0,3.,1.2,132.,1.2,0.,1.2,0.,1.2
1979-07-23 06:05:00.010 ,3,0,2.,1.2,38.,1.2,1.,1.2,0.,1.2
1979-07-23 06:05:01.210 ,3,0,2.,1.2,40.,1.2,1.,1.2,0.,1.2
1979-07-23 06:05:02.410 ,3,0,2.,1.2,38.,1.2,0.,1.2,0.,1.2
1979-07-23 06:05:03.610 ,3,0,2.,1.2,36.,1.2,0.,1.2,0.,1.2
1979-07-23 06:05:04.810 ,3,0,2.,1.2,220.,1.2,0.,1.2,0.,1.2
1979-07-23 06:05:06.010 ,3,0,0.,1.2,8.,1.2,0.,1.2,0.,1.2
1979-07-23 06:05:07.210 ,3,0,0.,1.2,22.,1.2,0.,1.2,0.,1.2
1979-07-23 06:05:08.410 ,3,0,2.,1.2,7.,1.2,0.,1.2,0.,1.2
1979-07-23 06:05:09.610 ,3,0,1.,1.2,13.,1.2,0.,1.2,0.,1.2
1979-07-23 06:05:10.810 ,0,0,4.,1.2,168.,1.2,0.,1.2,0.,1.2
1979-07-23 06:05:12.010 ,0,0,2.,1.2,36.,1.2,0.,1.2,0.,1.2
1979-07-23 06:05:13.210 ,0,0,2.,1.2,28.,1.2,0.,1.2,0.,1.2
1979-07-23 06:05:14.410 ,0,0,1.,1.2,28.,1.2,0.,1.2,0.,1.2
1979-07-23 06:05:15.610 ,0,0,5.,1.2,46.,1.2,0.,1.2,0.,1.2
1979-07-23 06:05:16.810 ,0,0,3.,1.2,196.,1.2,0.,1.2,0.,1.2
1979-07-23 06:05:18.010 ,0,0,1.,1.2,30.,1.2,0.,1.2,0.,1.2
1979-07-23 06:05:19.210 ,0,0,2.,1.2,34.,1.2,0.,1.2,0.,1.2
1979-07-23 06:05:20.410 ,0,0,3.,1.2,36.,1.2,1.,1.2,0.,1.2
1979-07-23 06:05:21.610 ,0,0,2.,1.2,38.,1.2,0.,1.2,0.,1.2
1979-07-23 06:05:22.810 ,0,0,3.,1.2,248.,1.2,0.,1.2,0.,1.2
1979-07-23 06:05:24.010 ,0,0,5.,1.2,43.,1.2,0.,1.2,0.,1.2
1979-07-23 06:05:25.210 ,0,0,7.,1.2,31.,1.2,0.,1.2,0.,1.2
1979-07-23 06:05:26.410 ,0,0,14.,1.2,29.,1.2,0.,1.2,0.,1.2
1979-07-23 06:05:27.610 ,0,0,8.,1.2,45.,1.2,0.,1.2,0.,1.2
1979-07-23 06:05:28.810 ,0,0,12.,1.2,36.,1.2,0.,1.2,0.,1.2
1979-07-23 06:05:30.010 ,0,0,8.,1.2,28.,1.2,0.,1.2,0.,1.2
1979-07-23 06:05:31.210 ,0,0,7.,1.2,38.,1.2,1.,1.2,0.,1.2
1979-07-23 06:05:32.410 ,0,0,9.,1.2,24.,1.2,0.,1.2,0.,1.2
1979-07-23 06:05:33.610 ,0,0,8.,1.2,32.,1.2,0.,1.2,0.,1.2
1979-07-23 06:05:34.810 ,0,0,5.,1.2,156.,1.2,0.,1.2,0.,1.2
1979-07-23 06:05:36.010 ,0,0,3.,1.2,36.,1.2,0.,1.2,0.,1.2
1979-07-23 06:05:37.210 ,0,0,2.,1.2,25.,1.2,0.,1.2,0.,1.2
1979-07-23 06:05:38.410 ,0,0,4.,1.2,21.,1.2,1.,1.2,0.,1.2
1979-07-23 06:05:39.610 ,0,0,2.,1.2,19.,1.2,0.,1.2,0.,1.2
1979-07-23 06:05:40.810 ,0,0,1.,1.2,188.,1.2,0.,1.2,0.,1.2
1979-07-23 06:05:42.010 ,0,0,2.,1.2,21.,1.2,0.,1.2,0.,1.2
1979-07-23 06:05:43.210 ,0,0,3.,1.2,21.,1.2,0.,1.2,0.,1.2
1979-07-23 06:05:44.410 ,0,0,6.,1.2,20.,1.2,0.,1.2,0.,1.2
1979-07-23 06:05:45.610 ,0,0,2.,1.2,19.,1.2,1.,1.2,0.,1.2
1979-07-23 06:05:46.810 ,0,0,1.,1.2,156.,1.2,1.,1.2,0.,1.2
1979-07-23 06:05:48.010 ,0,0,0.,1.2,5.,1.2,0.,1.2,0.,1.2
1979-07-23 06:05:49.210 ,0,0,1.,1.2,13.,1.2,0.,1.2,0.,1.2
1979-07-23 06:05:50.410 ,0,0,1.,1.2,9.,1.2,1.,1.2,0.,1.2
1979-07-23 06:05:51.610 ,0,0,2.,1.2,13.,1.2,0.,1.2,0.,1.2
1979-07-23 06:05:52.810 ,0,0,3.,1.2,164.,1.2,1.,1.2,0.,1.2
1979-07-23 06:05:54.010 ,0,0,2.,1.2,33.,1.2,0.,1.2,0.,1.2
1979-07-23 06:05:55.210 ,0,0,2.,1.2,35.,1.2,0.,1.2,0.,1.2
1979-07-23 06:05:56.410 ,0,0,1.,1.2,34.,1.2,0.,1.2,0.,1.2
1979-07-23 06:05:57.610 ,0,0,1.,1.2,34.,1.2,0.,1.2,0.,1.2
1979-07-23 06:05:58.810 ,0,0,4.,1.2,144.,1.2,0.,1.2,0.,1.2
1979-07-23 06:06:00.010 ,0,0,1.,1.2,23.,1.2,0.,1.2,0.,1.2
1979-07-23 06:06:01.210 ,0,0,1.,1.2,32.,1.2,0.,1.2,0.,1.2
1979-07-23 06:06:02.410 ,0,0,1.,1.2,25.,1.2,0.,1.2,0.,1.2
1979-07-23 06:06:03.610 ,0,0,1.,1.2,30.,1.2,0.,1.2,0.,1.2
1979-07-23 06:06:04.810 ,0,0,1.,1.2,176.,1.2,0.,1.2,0.,1.2
1979-07-23 06:06:06.010 ,0,0,2.,1.2,14.,1.2,0.,1.2,0.,1.2
1979-07-23 06:06:07.210 ,0,0,2.,1.2,10.,1.2,0.,1.2,0.,1.2
1979-07-23 06:06:08.410 ,0,0,4.,1.2,13.,1.2,0.,1.2,0.,1.2
1979-07-23 06:06:09.610 ,0,0,0.,1.2,18.,1.2,0.,1.2,0.,1.2
1979-07-23 06:06:10.810 ,0,0,0.,1.2,188.,1.2,1.,1.2,0.,1.2
1979-07-23 06:06:12.010 ,0,0,0.,1.2,17.,1.2,10.,1.2,0.,1.2
1979-07-23 06:06:13.210 ,0,0,0.,1.2,7.,1.2,7.,1.2,0.,1.2
1979-07-23 06:06:14.410 ,0,0,0.,1.2,13.,1.2,4.,1.2,0.,1.2
1979-07-23 06:06:15.610 ,0,0,0.,1.2,14.,1.2,11.,1.2,0.,1.2
1979-07-23 06:06:16.810 ,0,0,0.,1.2,11.,1.2,6.,1.2,0.,1.2
1979-07-23 06:06:18.010 ,0,0,0.,1.2,11.,1.2,6.,1.2,0.,1.2
1979-07-23 06:06:19.210 ,0,0,0.,1.2,20.,1.2,2.,1.2,0.,1.2
1979-07-23 06:06:20.410 ,0,0,0.,1.2,13.,1.2,5.,1.2,0.,1.2
1979-07-23 06:06:21.610 ,0,0,0.,1.2,15.,1.2,3.,1.2,0.,1.2
1979-07-23 06:06:22.810 ,5,0,0.,1.2,224.,1.2,3.,1.2,0.,1.2
1979-07-23 06:06:24.010 ,5,0,1.,1.2,10.,1.2,0.,1.2,0.,1.2
1979-07-23 06:06:25.210 ,5,0,0.,1.2,14.,1.2,0.,1.2,0.,1.2
1979-07-23 06:06:26.410 ,5,0,1.,1.2,12.,1.2,0.,1.2,0.,1.2
1979-07-23 06:06:27.610 ,5,0,1.,1.2,8.,1.2,1.,1.2,0.,1.2
1979-07-23 06:06:28.810 ,5,0,1.,1.2,264.,1.2,0.,1.2,0.,1.2
1979-07-23 06:06:30.010 ,5,0,2.,1.2,13.,1.2,0.,1.2,0.,1.2
1979-07-23 06:06:31.210 ,5,0,1.,1.2,28.,1.2,0.,1.2,0.,1.2
1979-07-23 06:06:32.410 ,5,0,0.,1.2,19.,1.2,0.,1.2,0.,1.2
1979-07-23 06:06:33.610 ,5,0,3.,1.2,19.,1.2,0.,1.2,0.,1.2
1979-07-23 06:06:34.810 ,5,0,5.,1.2,19.,1.2,0.,1.2,0.,1.2
1979-07-23 06:06:36.010 ,5,0,0.,1.2,19.,1.2,0.,1.2,0.,1.2
1979-07-23 06:06:37.210 ,5,0,2.,1.2,17.,1.2,1.,1.2,1.,1.2
1979-07-23 06:06:38.410 ,5,0,1.,1.2,15.,1.2,1.,1.2,1.,1.2
1979-07-23 06:06:39.610 ,5,0,1.,1.2,14.,1.2,0.,1.2,0.,1.2
1979-07-23 06:06:40.810 ,5,0,4.,1.2,17.,1.2,0.,1.2,0.,1.2
1979-07-23 06:06:42.010 ,5,0,2.,1.2,26.,1.2,0.,1.2,0.,1.2
1979-07-23 06:06:43.210 ,5,0,1.,1.2,17.,1.2,2.,1.2,0.,1.2
1979-07-23 06:06:44.410 ,5,0,2.,1.2,14.,1.2,0.,1.2,0.,1.2
1979-07-23 06:06:45.610 ,5,0,0.,1.2,23.,1.2,0.,1.2,0.,1.2
1979-07-23 06:06:46.810 ,5,0,2.,1.2,21.,1.2,0.,1.2,0.,1.2
1979-07-23 06:06:48.010 ,5,0,4.,1.2,13.,1.2,0.,1.2,0.,1.2
1979-07-23 06:06:49.210 ,5,0,1.,1.2,25.,1.2,1.,1.2,0.,1.2
1979-07-23 06:06:50.410 ,5,0,1.,1.2,19.,1.2,0.,1.2,0.,1.2
1979-07-23 06:06:51.610 ,5,0,4.,1.2,17.,1.2,0.,1.2,0.,1.2
1979-07-23 06:06:52.810 ,5,0,1.,1.2,15.,1.2,0.,1.2,0.,1.2
1979-07-23 06:06:54.010 ,5,0,3.,1.2,24.,1.2,0.,1.2,0.,1.2
1979-07-23 06:06:55.210 ,5,0,0.,1.2,16.,1.2,0.,1.2,0.,1.2
1979-07-23 06:06:56.410 ,5,0,2.,1.2,13.,1.2,0.,1.2,0.,1.2
1979-07-23 06:06:57.610 ,5,0,2.,1.2,21.,1.2,0.,1.2,0.,1.2
1979-07-23 06:06:58.810 ,5,0,3.,1.2,16.,1.2,0.,1.2,0.,1.2
1979-07-23 06:07:00.010 ,5,0,4.,1.2,16.,1.2,0.,1.2,0.,1.2
1979-07-23 06:07:01.210 ,5,0,4.,1.2,18.,1.2,0.,1.2,0.,1.2
1979-07-23 06:07:02.410 ,5,0,2.,1.2,25.,1.2,0.,1.2,0.,1.2
1979-07-23 06:07:03.610 ,5,0,1.,1.2,17.,1.2,0.,1.2,0.,1.2
1979-07-23 06:07:04.810 ,5,0,5.,1.2,20.,1.2,0.,1.2,0.,1.2
1979-07-23 06:07:06.010 ,5,0,4.,1.2,18.,1.2,0.,1.2,0.,1.2
1979-07-23 06:07:07.210 ,5,0,2.,1.2,20.,1.2,0.,1.2,0.,1.2
1979-07-23 06:07:08.410 ,5,0,3.,1.2,9.,1.2,0.,1.2,0.,1.2
1979-07-23 06:07:09.610 ,5,0,5.,1.2,19.,1.2,0.,1.2,0.,1.2
1979-07-23 06:07:10.810 ,4,0,0.,1.2,14.,1.2,1.,1.2,0.,1.2
1979-07-23 06:07:12.010 ,4,0,3.,1.2,17.,1.2,0.,1.2,0.,1.2
1979-07-23 06:07:13.210 ,4,0,0.,1.2,17.,1.2,0.,1.2,0.,1.2
1979-07-23 06:07:14.410 ,4,0,3.,1.2,22.,1.2,0.,1.2,0.,1.2
1979-07-23 06:07:15.610 ,4,0,0.,1.2,18.,1.2,1.,1.2,0.,1.2
1979-07-23 06:07:16.810 ,4,0,1.,1.2,156.,1.2,0.,1.2,0.,1.2
1979-07-23 06:07:18.010 ,4,0,0.,1.2,25.,1.2,0.,1.2,1.,1.2
1979-07-23 06:07:19.210 ,4,0,0.,1.2,28.,1.2,0.,1.2,0.,1.2
1979-07-23 06:07:20.410 ,4,0,1.,1.2,21.,1.2,0.,1.2,0.,1.2
1979-07-23 06:07:21.610 ,4,0,0.,1.2,30.,1.2,0.,1.2,0.,1.2
1979-07-23 06:07:22.810 ,4,0,2.,1.2,28.,1.2,0.,1.2,0.,1.2
1979-07-23 06:07:24.010 ,4,0,2.,1.2,19.,1.2,1.,1.2,0.,1.2
1979-07-23 06:07:25.210 ,4,0,4.,1.2,23.,1.2,0.,1.2,0.,1.2
1979-07-23 06:07:26.410 ,4,0,1.,1.2,23.,1.2,0.,1.2,0.,1.2
1979-07-23 06:07:27.610 ,4,0,2.,1.2,15.,1.2,0.,1.2,0.,1.2
1979-07-23 06:07:28.810 ,4,0,1.,1.2,23.,1.2,0.,1.2,0.,1.2
1979-07-23 06:07:30.010 ,4,0,2.,1.2,24.,1.2,0.,1.2,0.,1.2
1979-07-23 06:07:31.210 ,4,0,2.,1.2,27.,1.2,0.,1.2,0.,1.2
1979-07-23 06:07:32.410 ,4,0,1.,1.2,20.,1.2,0.,1.2,0.,1.2
1979-07-23 06:07:33.610 ,4,0,1.,1.2,20.,1.2,0.,1.2,1.,1.2
1979-07-23 06:07:34.810 ,4,0,1.,1.2,15.,1.2,0.,1.2,0.,1.2
1979-07-23 06:07:36.010 ,4,0,1.,1.2,28.,1.2,0.,1.2,0.,1.2
1979-07-23 06:07:37.210 ,4,0,0.,1.2,21.,1.2,0.,1.2,0.,1.2
1979-07-23 06:07:38.410 ,4,0,2.,1.2,22.,1.2,0.,1.2,0.,1.2
1979-07-23 06:07:39.610 ,4,0,3.,1.2,17.,1.2,0.,1.2,0.,1.2
1979-07-23 06:07:40.810 ,4,0,3.,1.2,19.,1.2,0.,1.2,0.,1.2
1979-07-23 06:07:42.010 ,4,0,1.,1.2,21.,1.2,0.,1.2,0.,1.2
1979-07-23 06:07:43.210 ,4,0,1.,1.2,23.,1.2,0.,1.2,0.,1.2
1979-07-23 06:07:44.410 ,4,0,1.,1.2,21.,1.2,0.,1.2,0.,1.2
1979-07-23 06:07:45.610 ,4,0,2.,1.2,26.,1.2,0.,1.2,0.,1.2
1979-07-23 06:07:46.810 ,4,0,0.,1.2,18.,1.2,0.,1.2,0.,1.2
1979-07-23 06:07:48.010 ,4,0,2.,1.2,21.,1.2,0.,1.2,0.,1.2
1979-07-23 06:07:49.210 ,4,0,1.,1.2,18.,1.2,0.,1.2,0.,1.2
1979-07-23 06:07:50.410 ,4,0,2.,1.2,22.,1.2,0.,1.2,0.,1.2
1979-07-23 06:07:51.610 ,4,0,1.,1.2,27.,1.2,0.,1.2,1.,1.2
1979-07-23 06:07:52.810 ,4,0,0.,1.2,22.,1.2,0.,1.2,0.,1.2
1979-07-23 06:07:54.010 ,4,0,0.,1.2,14.,1.2,0.,1.2,0.,1.2
1979-07-23 06:07:55.210 ,4,0,4.,1.2,21.,1.2,0.,1.2,0.,1.2
1979-07-23 06:07:56.410 ,4,0,1.,1.2,30.,1.2,0.,1.2,0.,1.2
1979-07-23 06:07:57.610 ,4,0,1.,1.2,32.,1.2,0.,1.2,0.,1.2
1979-07-23 06:07:58.810 ,3,0,2.,1.2,39.,1.2,0.,1.2,0.,1.2
1979-07-23 06:08:00.010 ,3,0,0.,1.2,47.,1.2,1.,1.2,0.,1.2
1979-07-23 06:08:01.210 ,3,0,2.,1.2,38.,1.2,0.,1.2,0.,1.2
1979-07-23 06:08:02.410 ,3,0,2.,1.2,32.,1.2,0.,1.2,0.,1.2
1979-07-23 06:08:03.610 ,3,0,2.,1.2,33.,1.2,0.,1.2,0.,1.2
1979-07-23 06:08:04.810 ,3,0,1.,1.2,204.,1.2,0.,1.2,0.,1.2
1979-07-23 06:08:06.010 ,3,0,1.,1.2,14.,1.2,0.,1.2,0.,1.2
1979-07-23 06:08:07.210 ,3,0,1.,1.2,12.,1.2,0.,1.2,0.,1.2
1979-07-23 06:08:08.410 ,3,0,0.,1.2,4.,1.2,0.,1.2,0.,1.2
1979-07-23 06:08:09.610 ,3,0,0.,1.2,10.,1.2,0.,1.2,0.,1.2
1979-07-23 06:08:10.810 ,3,0,1.,1.2,7.,1.2,0.,1.2,0.,1.2
1979-07-23 06:08:12.010 ,3,0,1.,1.2,3.,1.2,0.,1.2,0.,1.2
1979-07-23 06:08:13.210 ,3,0,5.,1.2,9.,1.2,0.,1.2,0.,1.2
1979-07-23 06:08:14.410 ,3,0,0.,1.2,12.,1.2,0.,1.2,0.,1.2
1979-07-23 06:08:15.610 ,3,0,2.,1.2,3.,1.2,0.,1.2,0.,1.2
1979-07-23 06:08:16.810 ,3,0,1.,1.2,7.,1.2,0.,1.2,0.,1.2
1979-07-23 06:08:18.010 ,3,0,0.,1.2,10.,1.2,0.,1.2,0.,1.2
1979-07-23 06:08:19.210 ,3,0,3.,1.2,7.,1.2,0.,1.2,0.,1.2
1979-07-23 06:08:20.410 ,3,0,2.,1.2,11.,1.2,0.,1.2,0.,1.2
1979-07-23 06:08:21.610 ,3,0,1.,1.2,6.,1.2,0.,1.2,0.,1.2
1979-07-23 06:08:22.810 ,3,0,0.,1.2,6.,1.2,0.,1.2,0.,1.2
1979-07-23 06:08:24.010 ,3,0,2.,1.2,7.,1.2,0.,1.2,0.,1.2
1979-07-23 06:08:25.210 ,3,0,2.,1.2,6.,1.2,0.,1.2,0.,1.2
1979-07-23 06:08:26.410 ,3,0,2.,1.2,11.,1.2,0.,1.2,0.,1.2